When you browse on this site, cookies collect data to enhance your experience and personalize the content and advertising you see.
Visit our Privacy Policy to learn more. By continuing to use the site, you agree to this use of cookies and data.
  • In Lithuania
  • List of Countries
  • For 7 days
  • Water Temperature
  • Satellite Maps
  • Weather Map
  • Weather Widgets
  • user-avatar
    Login

    Hourly Weather Wien

    Today, 20 April, Saturday

    Time Temperature Precipitation Wind Pressure Humidity
    00:00 +11°C° 0 mm 1 mps 753 mmHg 60%
    01:00 +11°C° 0 mm 1 mps 754 mmHg 62%
    02:00 +10°C° 0 mm 1 mps 753 mmHg 63%
    03:00 +10°C° 0 mm 1 mps 753 mmHg 65%
    04:00 +9°C° 0 mm 1 mps 753 mmHg 67%
    05:00 +10°C° 0 mm 1 mps 753 mmHg 65%
    06:00 +11°C° 0 mm 1 mps 753 mmHg 62%
    07:00 +12°C° 0 mm 1 mps 753 mmHg 60%
    08:00 +14°C° 0 mm 1 mps 753 mmHg 54%
    09:00 +16°C° 0 mm 1 mps 753 mmHg 48%
    10:00 +19°C° 0 mm 1 mps 753 mmHg 42%
    11:00 +20°C° 0 mm 1 mps 753 mmHg 39%
    12:00 +21°C° 0 mm 1 mps 753 mmHg 35%
    13:00 +22°C° 0 mm 1 mps 752 mmHg 31%
    14:00 +22°C° 0 mm 1 mps 752 mmHg 31%
    15:00 +21°C° 0 mm 1 mps 751 mmHg 31%
    16:00 +21°C° 0 mm 1 mps 751 mmHg 31%
    17:00 +20°C° 0 mm 1 mps 751 mmHg 34%
    18:00 +18°C° 0 mm 1 mps 750 mmHg 38%
    19:00 +14°C° 0 mm 0 mps 750 mmHg 42%
    20:00 +14°C° 0 mm 1 mps 750 mmHg 44%
    21:00 +14°C° 0 mm 1 mps 751 mmHg 47%
    22:00 +13°C° 0 mm 1 mps 751 mmHg 49%
    23:00 +12°C° 0 mm 1 mps 750 mmHg 51%

    Tomorrow, 21 April, Sunday

    Time Temperature Precipitation Wind Pressure Humidity
    00:00 +12°C° 0 mm 1 mps 750 mmHg 53%
    01:00 +11°C° 0 mm 1 mps 750 mmHg 56%
    02:00 +11°C° 0 mm 1 mps 750 mmHg 58%
    03:00 +10°C° 0 mm 1 mps 749 mmHg 60%
    04:00 +10°C° 0 mm 1 mps 749 mmHg 63%
    05:00 +10°C° 0 mm 1 mps 749 mmHg 61%
    06:00 +11°C° 0 mm 1 mps 749 mmHg 60%
    07:00 +12°C° 0 mm 2 mps 749 mmHg 59%
    08:00 +14°C° 0 mm 2 mps 749 mmHg 53%
    09:00 +16°C° 0 mm 2 mps 748 mmHg 47%
    10:00 +17°C° 0 mm 2 mps 748 mmHg 41%
    11:00 +18°C° 0 mm 2 mps 748 mmHg 39%
    12:00 +19°C° 0 mm 2 mps 747 mmHg 38%
    13:00 +20°C° 0 mm 3 mps 747 mmHg 36%
    14:00 +20°C° 0 mm 3 mps 746 mmHg 37%
    15:00 +20°C° 0 mm 3 mps 746 mmHg 37%
    16:00 +20°C° 0 mm 3 mps 746 mmHg 38%
    17:00 +18°C° 0 mm 2 mps 745 mmHg 43%
    18:00 +16°C° 0 mm 2 mps 745 mmHg 48%
    19:00 +15°C° 0 mm 2 mps 745 mmHg 53%
    20:00 +14°C° 0 mm 2 mps 745 mmHg 55%
    21:00 +13°C° 0 mm 1 mps 745 mmHg 56%
    22:00 +12°C° 0 mm 1 mps 745 mmHg 58%
    23:00 +11°C° 0 mm 1 mps 745 mmHg 60%

    Day after tomorrow, 22 April, Monday

    Time Temperature Precipitation Wind Pressure Humidity
    00:00 +11°C° 0 mm 1 mps 745 mmHg 62%
    01:00 +10°C° 0 mm 1 mps 744 mmHg 63%
    02:00 +10°C° 0 mm 1 mps 744 mmHg 65%
    03:00 +9°C° 0 mm 1 mps 744 mmHg 66%
    04:00 +9°C° 0 mm 1 mps 743 mmHg 67%
    05:00 +10°C° 0 mm 1 mps 743 mmHg 66%
    06:00 +10°C° 0 mm 1 mps 743 mmHg 64%
    07:00 +11°C° 0 mm 1 mps 743 mmHg 62%
    08:00 +13°C° 0 mm 2 mps 742 mmHg 60%
    09:00 +14°C° 0 mm 2 mps 742 mmHg 57%
    10:00 +16°C° 0 mm 3 mps 742 mmHg 55%
    11:00 +15°C° 0 mm 4 mps 741 mmHg 55%
    12:00 +17°C° 0 mm 4 mps 741 mmHg 54%
    13:00 +16°C° 0 mm 5 mps 740 mmHg 54%
    14:00 +16°C° 0 mm 5 mps 740 mmHg 57%
    15:00 +15°C° 0 mm 6 mps 739 mmHg 60%
    16:00 +15°C° 0 mm 6 mps 739 mmHg 63%
    17:00 +14°C° 0 mm 6 mps 739 mmHg 67%
    18:00 +13°C° 0 mm 6 mps 738 mmHg 71%
    19:00 +13°C° 0 mm 6 mps 738 mmHg 76%
    20:00 +11°C° 0 mm 6 mps 738 mmHg 78%
    21:00 +10°C° 0 mm 6 mps 738 mmHg 80%
    22:00 +10°C° 0 mm 6 mps 738 mmHg 82%
    23:00 +10°C° 0.1 mm 7 mps 738 mmHg 83%

    23 April, Tuesday

    Time Temperature Precipitation Wind Pressure Humidity
    00:00 +10°C° 0.1 mm 7 mps 737 mmHg 85%
    01:00 +10°C° 0.1 mm 7 mps 737 mmHg 86%
    02:00 +9°C° 0.6 mm 7 mps 737 mmHg 86%
    03:00 +9°C° 0.6 mm 7 mps 736 mmHg 87%
    04:00 +9°C° 0.6 mm 7 mps 736 mmHg 88%
    05:00 +9°C° 1.3 mm 8 mps 736 mmHg 88%
    06:00 +9°C° 1.3 mm 8 mps 736 mmHg 89%
    07:00 +9°C° 1.3 mm 8 mps 736 mmHg 90%
    08:00 +9°C° 0.3 mm 8 mps 736 mmHg 89%
    09:00 +8°C° 0.3 mm 9 mps 736 mmHg 88%
    10:00 +10°C° 0.3 mm 9 mps 736 mmHg 86%
    11:00 +10°C° 0.3 mm 9 mps 736 mmHg 86%
    12:00 +10°C° 0.3 mm 8 mps 736 mmHg 86%
    13:00 +10°C° 0.3 mm 8 mps 735 mmHg 86%
    14:00 +11°C° 0.1 mm 8 mps 735 mmHg 86%
    15:00 +12°C° 0.1 mm 8 mps 735 mmHg 85%
    16:00 +13°C° 0.1 mm 8 mps 735 mmHg 85%
    17:00 +13°C° 0.1 mm 8 mps 735 mmHg 86%
    18:00 +14°C° 0.1 mm 7 mps 735 mmHg 87%
    19:00 +14°C° 0.1 mm 7 mps 735 mmHg 88%
    20:00 +14°C° 0 mm 6 mps 736 mmHg 88%
    21:00 +14°C° 0 mm 6 mps 736 mmHg 87%
    22:00 +14°C° 0 mm 6 mps 736 mmHg 87%
    23:00 +14°C° 0 mm 6 mps 737 mmHg 85%

    24 April, Wednesday

    Time Temperature Precipitation Wind Pressure Humidity
    00:00 +14°C° 0 mm 6 mps 737 mmHg 84%
    01:00 +14°C° 0 mm 6 mps 737 mmHg 82%
    02:00 +13°C° 0 mm 6 mps 737 mmHg 83%
    03:00 +13°C° 0 mm 5 mps 738 mmHg 83%
    04:00 +13°C° 0 mm 5 mps 738 mmHg 84%
    05:00 +13°C° 0 mm 5 mps 739 mmHg 82%
    06:00 +14°C° 0 mm 5 mps 739 mmHg 81%
    07:00 +14°C° 0 mm 5 mps 740 mmHg 79%
    08:00 +16°C° 0 mm 5 mps 740 mmHg 73%
    09:00 +19°C° 0 mm 5 mps 741 mmHg 67%
    10:00 +20°C° 0 mm 4 mps 741 mmHg 61%
    11:00 +21°C° 0 mm 5 mps 741 mmHg 58%
    12:00 +22°C° 0 mm 5 mps 741 mmHg 54%
    13:00 +25°C° 0 mm 5 mps 741 mmHg 51%
    14:00 +25°C° 0 mm 5 mps 741 mmHg 51%
    15:00 +25°C° 0 mm 5 mps 741 mmHg 51%
    16:00 +25°C° 0 mm 5 mps 741 mmHg 51%
    17:00 +22°C° 0 mm 5 mps 741 mmHg 57%
    18:00 +21°C° 0 mm 5 mps 742 mmHg 62%
    19:00 +19°C° 0 mm 5 mps 742 mmHg 68%
    20:00 +17°C° 0 mm 5 mps 742 mmHg 71%
    21:00 +17°C° 0 mm 5 mps 742 mmHg 75%
    22:00 +17°C° 0 mm 4 mps 743 mmHg 78%
    23:00 +15°C° 0 mm 4 mps 743 mmHg 80%

    25 April, Thursday

    Time Temperature Precipitation Wind Pressure Humidity
    00:00 +14°C° 0 mm 4 mps 743 mmHg 82%
    01:00 +14°C° 0 mm 4 mps 743 mmHg 84%
    02:00 +13°C° 0 mm 4 mps 743 mmHg 86%
    03:00 +13°C° 0 mm 4 mps 742 mmHg 88%
    04:00 +12°C° 0 mm 4 mps 742 mmHg 90%
    05:00 +13°C° 0 mm 5 mps 742 mmHg 87%
    06:00 +13°C° 0 mm 6 mps 742 mmHg 83%
    07:00 +14°C° 0 mm 6 mps 742 mmHg 79%
    08:00 +16°C° 0 mm 7 mps 742 mmHg 72%
    09:00 +18°C° 0 mm 8 mps 742 mmHg 65%
    10:00 +21°C° 0 mm 9 mps 742 mmHg 57%
    11:00 +22°C° 0 mm 9 mps 741 mmHg 54%
    12:00 +23°C° 0 mm 9 mps 741 mmHg 51%
    13:00 +24°C° 0 mm 9 mps 740 mmHg 48%
    14:00 +24°C° 0 mm 9 mps 740 mmHg 49%
    15:00 +24°C° 0 mm 9 mps 739 mmHg 50%
    16:00 +24°C° 0 mm 8 mps 739 mmHg 52%
    17:00 +23°C° 0 mm 8 mps 739 mmHg 57%
    18:00 +22°C° 0 mm 7 mps 739 mmHg 61%
    19:00 +20°C° 0 mm 6 mps 739 mmHg 66%
    20:00 +20°C° 0 mm 6 mps 738 mmHg 69%
    21:00 +19°C° 0 mm 6 mps 738 mmHg 72%
    22:00 +19°C° 0 mm 6 mps 738 mmHg 75%
    23:00 +17°C° 0 mm 6 mps 738 mmHg 76%
    Show more